[[{"header":{"parameterUnit":"m.s-1","parameterCategory":1,"la1":30.2991,"la2":30.254,"lo1":-89.0895,"lo2":-89.0444,"dy":0.0017,"dx":0.0017,"nx":28,"ny":28,"refTime":"2026-02-07T09:00:00:Z","depth":0,"parameterNumber":2,"parameterNumberName":"U-component_of_WINDS"},"data":[0,0,0,0,0,0,0,0,0,0,0,0,0,0,0,0,0,0,0,0,0,0,0,0,0,0,0,0,0,0,0,0,0,0,0,0,0,0,0,0,0,0,0,0,0,0,0,0,0,0,0,0,0,0,0,0,0,0,-0.7902,-0.7901,0,-0.7851,-0.7851,-0.785,-0.7833,-0.7834,-0.7834,-0.7834,-0.7782,-0.7781,-0.7779,0,0,0,0,0,0,0,0,0,0,0,0,0,-0.7983,-0.7981,-0.7902,-0.7901,-0.79,-0.7852,-0.7851,-0.785,-0.7833,-0.7834,-0.7834,-0.7834,-0.7783,-0.7781,-0.7779,0,0,0,0,0,0,0,0,0,0,0,0,0,-0.7941,-0.7981,-0.7902,-0.7886,-0.7884,-0.7852,-0.7851,-0.785,-0.7833,-0.7834,-0.7834,-0.7834,-0.7784,-0.7781,-0.7779,-0.7758,0,0,-0.7772,-0.7771,0,0,0,0,0,0,0,0,-0.7944,-0.7938,-0.7889,-0.7887,-0.7885,-0.7849,-0.786,-0.7819,-0.7833,-0.7853,-0.7834,-0.7834,-0.7804,-0.78,-0.779,-0.7756,-0.7754,-0.7772,-0.777,-0.7769,-0.7769,0,0,0,0,0,0,0,-0.7947,-0.7941,-0.7882,-0.7888,-0.7886,-0.7881,-0.7876,-0.7852,-0.7827,-0.7851,-0.785,-0.7844,-0.7803,-0.7793,-0.7789,-0.7753,-0.7772,-0.777,-0.7768,-0.7767,-0.7697,-0.7697,0,0,0,0,0,0,-0.7952,-0.7943,-0.7883,-0.788,-0.7916,-0.788,-0.7874,-0.786,-0.7828,-0.7823,-0.7844,-0.7843,-0.7796,-0.7792,-0.7787,-0.7759,-0.7769,-0.7767,-0.7766,-0.7698,-0.7697,-0.7697,0,0,0,0,0,0,-0.7954,-0.7947,-0.7885,-0.7911,-0.7903,-0.7878,-0.7863,-0.7859,-0.7848,-0.7822,-0.7818,-0.7837,-0.7796,-0.779,-0.7765,-0.7757,-0.7766,-0.7764,-0.7698,-0.7698,-0.7697,-0.7705,0,0,0,0,0,0,-0.7956,-0.7948,-0.794,-0.7911,-0.7902,-0.7865,-0.7863,-0.7858,-0.7844,-0.7843,-0.7815,-0.781,-0.7796,-0.7769,-0.7763,-0.7754,-0.7762,-0.7699,-0.7698,-0.7697,-0.7705,-0.7705,-0.7704,0,0,0,0,0,-0.7959,-0.7944,-0.794,-0.7932,-0.7891,-0.7864,-0.7859,-0.7843,-0.7844,-0.7835,-0.7818,-0.7811,-0.7759,-0.7766,-0.776,-0.775,-0.7699,-0.7698,-0.7697,-0.7706,-0.7705,-0.7704,0,0,0,0,0,0,-0.7973,-0.794,-0.7935,-0.791,-0.789,-0.7862,-0.785,-0.7843,-0.7822,-0.7822,-0.7803,-0.7797,-0.7773,-0.7759,-0.7767,-0.7728,-0.7729,-0.7727,-0.7738,-0.7737,-0.7736,-0.774,-0.776,0,0,0,0,0,-0.7973,-0.7954,-0.7926,-0.7907,-0.7898,-0.7876,-0.7863,-0.7853,-0.7831,-0.7823,-0.7804,-0.7783,-0.7762,-0.7749,-0.7728,-0.7703,-0.7696,-0.7694,-0.7693,-0.7693,-0.7691,-0.7675,-0.7674,-0.7694,-0.7694,-0.7694,0,0,-0.7973,-0.7953,-0.7942,-0.7909,-0.7893,-0.7873,-0.7869,-0.7848,-0.7833,-0.782,-0.7794,-0.778,-0.7756,-0.773,-0.7718,-0.7718,-0.7684,-0.7691,-0.7691,-0.7689,-0.7674,-0.7672,-0.7671,-0.7693,-0.7693,-0.7693,0,0,-0.7963,-0.7946,-0.7928,-0.7911,-0.7885,-0.7871,-0.7867,-0.7839,-0.7829,-0.7803,-0.7792,-0.7774,-0.7738,-0.7721,-0.7708,-0.769,-0.7683,-0.7684,-0.7681,-0.7666,-0.7665,-0.7663,-0.7656,-0.7654,-0.7682,-0.7682,-0.7682,0,-0.7966,-0.7936,-0.7919,-0.7899,-0.7885,-0.7871,-0.7852,-0.7836,-0.7806,-0.7796,-0.7796,-0.7751,-0.7733,-0.7703,-0.7699,-0.7689,-0.7683,-0.7687,-0.7666,-0.7665,-0.7663,-0.7656,-0.7653,-0.7682,-0.7682,-0.7682,-0.7682,0,-0.7941,-0.792,-0.7908,-0.7878,-0.7863,-0.7843,-0.7823,-0.7809,-0.78,-0.7785,-0.7759,-0.7738,-0.7712,-0.7704,-0.7695,-0.7672,-0.7673,-0.767,-0.7671,-0.7661,-0.7654,-0.7652,-0.7683,-0.7683,-0.7683,-0.7683,0,0,-0.7938,-0.7898,-0.7894,-0.788,-0.7851,-0.7834,-0.7814,-0.7788,-0.7776,-0.7756,-0.7737,-0.7707,-0.7704,-0.7689,-0.7678,-0.7665,-0.7651,-0.7663,-0.7662,-0.7661,-0.7624,-0.7625,-0.7623,-0.7646,-0.7645,-0.7645,-0.7625,0,-0.7923,-0.7886,-0.787,-0.784,-0.782,-0.7806,-0.7789,-0.7768,-0.7754,-0.7735,-0.7719,-0.7697,-0.7696,-0.7686,-0.7673,-0.7656,-0.7643,-0.7657,-0.7628,-0.7628,-0.7634,-0.7619,-0.7621,-0.7604,-0.7623,-0.7622,-0.7622,0,-0.7901,-0.7879,-0.7847,-0.7819,-0.7811,-0.7795,-0.777,-0.7752,-0.7728,-0.7719,-0.7701,-0.769,-0.7668,-0.767,-0.7639,-0.7648,-0.7636,-0.7625,-0.7624,-0.762,-0.7624,-0.7614,-0.7598,-0.7595,-0.7618,-0.7618,-0.7618,0,-0.7901,-0.7864,-0.784,-0.7828,-0.7795,-0.7784,-0.777,-0.7747,-0.7732,-0.771,-0.7701,-0.7677,-0.7663,-0.7644,-0.7627,-0.7631,-0.7597,-0.7598,-0.7587,-0.7588,-0.758,-0.7581,-0.7561,-0.7574,-0.7574,-0.7574,-0.7574,0,-0.7886,-0.7866,-0.7839,-0.7824,-0.7802,-0.7783,-0.7762,-0.7747,-0.7726,-0.7707,-0.7695,-0.7678,-0.7656,-0.7636,-0.7622,-0.7597,-0.7592,-0.7583,-0.7579,-0.7583,-0.7584,-0.7574,-0.7575,-0.7573,-0.7573,-0.7573,-0.7573,0,-0.7882,-0.7863,-0.7835,-0.7806,-0.7798,-0.7783,-0.7758,-0.7743,-0.7727,-0.7704,-0.7698,-0.7674,-0.7649,-0.763,-0.7599,-0.7589,-0.7563,-0.7559,-0.7571,-0.7569,-0.7559,-0.756,-0.7531,-0.7526,-0.7543,-0.7543,-0.7543,0,-0.7873,-0.7858,-0.7827,-0.7813,-0.7799,-0.7778,-0.7762,-0.7744,-0.7728,-0.77,-0.7688,-0.7663,-0.7641,-0.7603,-0.7583,-0.7558,-0.7553,-0.7545,-0.755,-0.7554,-0.7552,-0.7553,-0.7551,-0.7544,-0.7544,-0.7544,-0.7544,0,-0.7859,-0.785,-0.7829,-0.7804,-0.7786,-0.7766,-0.7745,-0.7735,-0.7712,-0.7695,-0.767,-0.7653,-0.7621,-0.7595,-0.7569,-0.7554,-0.7545,-0.7543,-0.7539,-0.7543,-0.7549,-0.7545,-0.7568,-0.7544,-0.7544,-0.7544,-0.7544,-0.7544,-0.7852,-0.7837,-0.7813,-0.7789,-0.7771,-0.7752,-0.7736,-0.7718,-0.7697,-0.7669,-0.7659,-0.7633,-0.7609,-0.7572,-0.7557,-0.7535,-0.7535,-0.753,-0.7528,-0.7527,-0.7527,-0.7553,-0.7531,-0.7531,-0.7531,-0.7531,-0.7531,0,-0.7836,-0.782,-0.7798,-0.7769,-0.775,-0.7744,-0.772,-0.7705,-0.7682,-0.766,-0.7639,-0.761,-0.7585,-0.7563,-0.7537,-0.7524,-0.7519,-0.7518,-0.7518,-0.7514,-0.7529,-0.7535,-0.7522,-0.7522,-0.7522,-0.7522,-0.7522,-0.7522,-0.7826,-0.7801,-0.7789,-0.7754,-0.7738,-0.7712,-0.7699,-0.768,-0.7663,-0.763,-0.761,-0.7595,-0.7573,-0.7545,-0.7522,-0.7516,-0.7506,-0.7506,-0.7498,-0.7512,-0.7514,-0.7515,-0.752,-0.7504,-0.7504,-0.7485,-0.7485,-0.7485]},{"header":{"parameterUnit":"m.s-1","parameterCategory":1,"la1":30.2991,"la2":30.254,"lo1":-89.0895,"lo2":-89.0444,"dy":0.0017,"dx":0.0017,"nx":28,"ny":28,"refTime":"2026-02-07T09:00:00:Z","depth":0,"parameterNumber":3,"parameterNumberName":"V-component_of_WINDS"},"data":[0,0,0,0,0,0,0,0,0,0,0,0,0,0,0,0,0,0,0,0,0,0,0,0,0,0,0,0,0,0,0,0,0,0,0,0,0,0,0,0,0,0,0,0,0,0,0,0,0,0,0,0,0,0,0,0,0,0,-1.6688,-1.6689,0,-1.6757,-1.6758,-1.6758,-1.6814,-1.6815,-1.6815,-1.6816,-1.6883,-1.6884,-1.6885,0,0,0,0,0,0,0,0,0,0,0,0,0,-1.6602,-1.6604,-1.6688,-1.6689,-1.669,-1.6757,-1.6758,-1.6759,-1.6814,-1.6815,-1.6816,-1.6816,-1.6883,-1.6884,-1.6885,0,0,0,0,0,0,0,0,0,0,0,0,0,-1.6652,-1.6604,-1.6688,-1.6726,-1.673,-1.6757,-1.6758,-1.6759,-1.6814,-1.6815,-1.6816,-1.6817,-1.6882,-1.6884,-1.6886,-1.688,0,0,-1.6891,-1.6892,0,0,0,0,0,0,0,0,-1.6649,-1.6655,-1.6719,-1.6723,-1.6728,-1.6778,-1.6752,-1.6799,-1.6814,-1.6782,-1.6816,-1.6817,-1.6847,-1.6852,-1.6863,-1.6883,-1.6886,-1.6892,-1.6893,-1.6893,-1.6894,0,0,0,0,0,0,0,-1.6646,-1.6653,-1.6715,-1.672,-1.6725,-1.6738,-1.6746,-1.6761,-1.6809,-1.6785,-1.6789,-1.6796,-1.685,-1.6861,-1.6865,-1.6887,-1.6891,-1.6893,-1.6894,-1.6895,-1.6906,-1.6905,0,0,0,0,0,0,-1.6637,-1.6649,-1.6713,-1.6717,-1.669,-1.6739,-1.6748,-1.6761,-1.6809,-1.6817,-1.6796,-1.6799,-1.6857,-1.6862,-1.6867,-1.6864,-1.6893,-1.6895,-1.6896,-1.6907,-1.6906,-1.6905,0,0,0,0,0,0,-1.6635,-1.6642,-1.671,-1.6685,-1.6694,-1.674,-1.6754,-1.6762,-1.6773,-1.6817,-1.6825,-1.6799,-1.6858,-1.6865,-1.6877,-1.6867,-1.6896,-1.6898,-1.6908,-1.6906,-1.6905,-1.6856,0,0,0,0,0,0,-1.6632,-1.6641,-1.6639,-1.6684,-1.6695,-1.6719,-1.6753,-1.6762,-1.6777,-1.6781,-1.6822,-1.6829,-1.6859,-1.6873,-1.6878,-1.687,-1.6899,-1.6909,-1.6907,-1.6906,-1.6858,-1.6853,-1.6848,0,0,0,0,0,-1.6629,-1.6622,-1.6639,-1.6646,-1.6695,-1.6718,-1.6724,-1.676,-1.6776,-1.6774,-1.6803,-1.6828,-1.6867,-1.6874,-1.688,-1.6872,-1.691,-1.6908,-1.6906,-1.6861,-1.6854,-1.6848,0,0,0,0,0,0,-1.6573,-1.6628,-1.6648,-1.6655,-1.6682,-1.6727,-1.6727,-1.6752,-1.6773,-1.6776,-1.6819,-1.6827,-1.6834,-1.6855,-1.6861,-1.6869,-1.6892,-1.6891,-1.6855,-1.6849,-1.6844,-1.6839,-1.6901,0,0,0,0,0,-1.6562,-1.6577,-1.6624,-1.6626,-1.6639,-1.668,-1.6692,-1.6717,-1.6746,-1.6757,-1.6786,-1.6812,-1.683,-1.6841,-1.686,-1.6862,-1.6872,-1.6859,-1.6854,-1.685,-1.6848,-1.6851,-1.6846,-1.6899,-1.6899,-1.6899,0,0,-1.6538,-1.657,-1.6577,-1.6616,-1.6639,-1.6654,-1.6689,-1.6702,-1.6713,-1.6758,-1.6772,-1.6794,-1.6826,-1.6833,-1.6837,-1.685,-1.6836,-1.6848,-1.6844,-1.6845,-1.6849,-1.6843,-1.6839,-1.6897,-1.6898,-1.6898,0,0,-1.6502,-1.6529,-1.6533,-1.6557,-1.6592,-1.6621,-1.6622,-1.6664,-1.6681,-1.6696,-1.673,-1.6743,-1.6774,-1.6795,-1.681,-1.6784,-1.6808,-1.6789,-1.6762,-1.6764,-1.676,-1.6757,-1.6747,-1.6743,-1.6788,-1.6788,-1.6788,0,-1.6468,-1.6492,-1.6532,-1.6544,-1.656,-1.6604,-1.6608,-1.6629,-1.6668,-1.6678,-1.6692,-1.6732,-1.6756,-1.6769,-1.6763,-1.6773,-1.6776,-1.6784,-1.6758,-1.6755,-1.6752,-1.6743,-1.6739,-1.6785,-1.6785,-1.6786,-1.6786,0,-1.6448,-1.6464,-1.6463,-1.6502,-1.6518,-1.6526,-1.6567,-1.6579,-1.6603,-1.6629,-1.6644,-1.6675,-1.6701,-1.6707,-1.673,-1.6723,-1.6729,-1.675,-1.6773,-1.6743,-1.6736,-1.6733,-1.6781,-1.6782,-1.6783,-1.6784,0,0,-1.6376,-1.6439,-1.6438,-1.6457,-1.65,-1.6513,-1.6523,-1.6551,-1.656,-1.6586,-1.6595,-1.6621,-1.6641,-1.6657,-1.6684,-1.6686,-1.6663,-1.6706,-1.6708,-1.6697,-1.6657,-1.664,-1.6636,-1.668,-1.668,-1.668,-1.6654,0,-1.6347,-1.6369,-1.6406,-1.6416,-1.6431,-1.6474,-1.6483,-1.651,-1.6535,-1.6551,-1.6579,-1.6597,-1.6622,-1.6632,-1.6636,-1.6665,-1.6656,-1.6668,-1.6688,-1.6689,-1.6678,-1.6632,-1.6615,-1.6589,-1.6652,-1.6651,-1.6651,0,-1.6314,-1.634,-1.6351,-1.6395,-1.6403,-1.641,-1.6439,-1.6455,-1.6486,-1.6505,-1.6525,-1.6554,-1.6567,-1.6589,-1.6607,-1.6614,-1.6625,-1.6641,-1.6641,-1.6643,-1.6667,-1.6632,-1.6582,-1.6577,-1.6647,-1.6647,-1.6647,0,-1.626,-1.6298,-1.631,-1.6324,-1.6376,-1.638,-1.6401,-1.6435,-1.6449,-1.6474,-1.6484,-1.6509,-1.6523,-1.6542,-1.6577,-1.6591,-1.6591,-1.6616,-1.6606,-1.6605,-1.6602,-1.6602,-1.6552,-1.6611,-1.6611,-1.6611,-1.6611,0,-1.6223,-1.6228,-1.6286,-1.6293,-1.63,-1.6344,-1.6349,-1.6374,-1.6404,-1.6416,-1.6455,-1.6465,-1.6512,-1.6528,-1.6556,-1.6566,-1.6572,-1.6586,-1.6594,-1.6582,-1.658,-1.6589,-1.6591,-1.661,-1.6611,-1.6611,-1.6611,0,-1.6162,-1.6202,-1.6218,-1.6266,-1.6279,-1.6282,-1.6323,-1.6331,-1.636,-1.6375,-1.6381,-1.6425,-1.6446,-1.6484,-1.6515,-1.6534,-1.6538,-1.6551,-1.6527,-1.6531,-1.6518,-1.6518,-1.6471,-1.6467,-1.6529,-1.6529,-1.6528,0,-1.6135,-1.614,-1.619,-1.6202,-1.6222,-1.624,-1.6256,-1.6299,-1.6314,-1.6352,-1.6355,-1.638,-1.6401,-1.6432,-1.6467,-1.6491,-1.6504,-1.6486,-1.6508,-1.6497,-1.6503,-1.6502,-1.6502,-1.648,-1.6479,-1.6479,-1.6478,0,-1.6082,-1.6102,-1.6123,-1.6152,-1.617,-1.6195,-1.6221,-1.6228,-1.6277,-1.6292,-1.6314,-1.6331,-1.6364,-1.6387,-1.6417,-1.6438,-1.6466,-1.6471,-1.647,-1.6458,-1.6444,-1.6451,-1.6512,-1.6472,-1.6472,-1.6473,-1.6473,-1.6473,-1.6037,-1.6044,-1.608,-1.6103,-1.6128,-1.6152,-1.6163,-1.6194,-1.6214,-1.6245,-1.6269,-1.629,-1.6323,-1.6366,-1.6386,-1.6402,-1.6415,-1.6413,-1.6412,-1.6411,-1.6406,-1.6442,-1.6408,-1.6408,-1.6408,-1.6408,-1.6408,0,-1.5985,-1.6011,-1.6032,-1.6069,-1.6087,-1.6114,-1.6145,-1.6158,-1.6176,-1.6205,-1.6227,-1.6253,-1.6276,-1.6313,-1.6339,-1.6345,-1.6359,-1.6351,-1.635,-1.6354,-1.6393,-1.6392,-1.6339,-1.6339,-1.6339,-1.6339,-1.6339,-1.6339,-1.596,-1.5973,-1.5998,-1.6024,-1.605,-1.6072,-1.6087,-1.6109,-1.6133,-1.6161,-1.6181,-1.6206,-1.6239,-1.6268,-1.629,-1.6301,-1.6308,-1.6296,-1.631,-1.6345,-1.6351,-1.6358,-1.6356,-1.6297,-1.6297,-1.6269,-1.6269,-1.6269]}]]